Fullerton, CA

7:29 PM PDT on April 29, 2017 (GMT -0700)
Fullerton Municipal

Weather History for KFUL - December, 2011

Change the Weather History Date:

Thursday, December 29, 2011

  Actual Average Record
Temperature  
Mean Temperature 61 °F 56 °F  
Max Temperature 76 °F 68 °F 83 °F (2016)
Min Temperature 45 °F 44 °F 36 °F (2015)
Degree Days  
Heating Degree Days 4 9  
Month to date heating degree days 256 255  
Since 1 July heating degree days 390 419  
Cooling Degree Days 0 0  
Month to date cooling degree days 0 0  
Year to date cooling degree days 1180 1251  
Growing Degree Days 10 (Base 50)    
Moisture  
Dew Point 42 °F    
Average Humidity 49    
Maximum Humidity 71    
Minimum Humidity 27    
Precipitation  
Precipitation 0.00 in 0.14 in 0.87 in (2010)
Month to date precipitation 0.71 1.78  
Year to date precipitation 8.24 13.61  
Since 1 July precipitation 2.67  
Snow  
Snow 0.00 in - - ()
Month to date snowfall 0.0  
Year to date snowfall 0.0  
Snow Depth 0.00 in    
Sea Level Pressure  
Sea Level Pressure 30.03 in    
Wind  
Wind Speed 0 mph (ESE)    
Max Wind Speed 7 mph    
Max Gust Speed 24 mph    
Visibility 9 miles    
Events      
T = Trace of Precipitation, MM = Missing Value Source: NWS Daily Summary

Daily Weather History Graph

Daily Weather History Graph

Search for Another Location

Airport or City:

Trip Planner

Search our weather history database for the weather conditions in past years. The results will help you decide how hot, cold, wet, or windy it might be!

Date:

Astronomy

Dec. 29, 2011 Rise Set
Actual Time 6:56 AM PST 4:51 PM PST
Civil Twilight 6:28 AM PST 5:19 PM PST
Nautical Twilight 5:57 AM PST 5:50 PM PST
Astronomical Twilight 5:26 AM PST 6:21 PM PST
Moon 10:06 AM PST (12/29) 10:16 PM PST (12/29)
Length of Visible Light 10h 50m
Length of Day
9h 55m
Waxing Crescent, 27% of the Moon is Illuminated
Dec 29
Waxing Crescent
Dec 31
First Quarter
Jan 8
Full
Jan 16
Last Quarter
Jan 22
New

Hourly Weather History & Observations

Time (PST) Temp. Dew Point Humidity Pressure Visibility Wind Dir Wind Speed Gust Speed Precip Events Conditions
12:53 AM 48.0 °F 37.0 °F 66% 30.09 in 10.0 mi Calm Calm - N/A   Clear
1:53 AM 46.0 °F 37.0 °F 71% 30.07 in 10.0 mi Calm Calm - N/A   Clear
2:53 AM 46.9 °F 37.0 °F 68% 30.07 in 10.0 mi Calm Calm - N/A   Clear
3:53 AM 46.9 °F 37.0 °F 68% 30.07 in 10.0 mi Calm Calm - N/A   Clear
4:53 AM 46.9 °F 35.1 °F 63% 30.06 in 10.0 mi Calm Calm - N/A   Clear
5:53 AM 45.0 °F 36.0 °F 71% 30.06 in 10.0 mi Calm Calm - N/A   Clear
7:53 AM 51.1 °F 34.0 °F 52% 30.07 in 10.0 mi ESE 3.5 mph - N/A   Clear
8:53 AM 59.0 °F 35.1 °F 41% 30.09 in 10.0 mi Calm Calm - N/A   Clear
9:53 AM 64.9 °F 33.1 °F 31% 30.09 in 10.0 mi Calm Calm - N/A   Clear
10:53 AM 69.1 °F 36.0 °F 30% 30.07 in 10.0 mi Calm Calm - N/A   Clear
11:53 AM 71.1 °F 37.9 °F 30% 30.03 in 8.0 mi Calm Calm - N/A   Clear
12:53 PM 73.9 °F 39.9 °F 29% 30.00 in 8.0 mi Calm Calm - N/A   Clear
1:53 PM 75.0 °F 39.0 °F 27% 29.97 in 8.0 mi Calm Calm - N/A   Clear
2:53 PM 75.9 °F 39.9 °F 27% 29.96 in 10.0 mi Calm Calm - N/A   Clear
4:53 PM 64.9 °F 46.9 °F 52% 29.97 in 10.0 mi Variable 3.5 mph - N/A   Clear
5:53 PM 63.0 °F 53.1 °F 70% 29.99 in 10.0 mi Calm Calm - N/A   Clear
6:53 PM 61.0 °F 53.1 °F 75% 29.99 in 9.0 mi Calm Calm - N/A   Clear
7:53 PM 57.9 °F 51.1 °F 78% 29.99 in 9.0 mi Calm Calm - N/A   Clear
8:53 PM 57.0 °F 51.1 °F 81% 30.01 in 8.0 mi Calm Calm - N/A   Clear
9:53 PM 55.9 °F 51.1 °F 84% 30.01 in 7.0 mi Calm Calm - N/A   Clear
10:53 PM 53.1 °F 48.9 °F 86% 30.01 in 6.0 mi Calm Calm - N/A   Clear
11:53 PM 52.0 °F 46.9 °F 83% 30.01 in 6.0 mi Calm Calm - N/A   Haze